CW4299 Treasure Island FL US current weather conditions

sailwx.info

Wind from 298 at 1 knots gusting 4

Air temperature 28.9° C
Dewpoint 24.9° C

Last reported at 2019-Sep-15 19:02 UTC.
Time now 2019-Sep-15 20:00 UTC

Location: N 27°46' W 082°46'.
View on Google Maps.

See reports from other nearby stations

  
Tides and Currents Weather Stations Pressure Air Temp Water Temp Dewpoint Dewpoint Depression Visibility Wind Speed Wind Dir Waves Ship Positions
date/time (UTC)wind fromknots sea level pressurealtimeterstation pressurevisibilityair tempwater tempwave heightnotes
2019-Sep-15 19:02 298 1 gusting 4 28.9
2019-Sep-15 18:46 231 2 gusting 5 28.9
2019-Sep-15 18:31 264 3 gusting 6 29.4
2019-Sep-15 18:16 342 2 gusting 6 29.4
2019-Sep-15 18:01 283 3 gusting 6 30.0
2019-Sep-15 17:46 270 1 gusting 5 30.0
2019-Sep-15 17:31 276 0 gusting 4 31.1
2019-Sep-15 17:16 105 31.1
2019-Sep-15 17:01 033 0 gusting 4 30.6
2019-Sep-15 16:48 335 30.0
2019-Sep-15 16:31 081 1 gusting 5 30.0
2019-Sep-15 16:15 360 0 gusting 4 29.4
2019-Sep-15 16:00 046 1 gusting 5 29.4
2019-Sep-15 15:45 045 28.9
2019-Sep-15 15:30 020 0 gusting 6 28.3
2019-Sep-15 15:15 038 1 gusting 6 28.3
2019-Sep-15 15:00 028 1 gusting 6 27.8
2019-Sep-15 14:45 053 0 gusting 6 27.8
2019-Sep-15 14:30 347 3 gusting 8 27.2
2019-Sep-15 14:15 360 1 gusting 7 27.2
2019-Sep-15 14:00 083 1 gusting 6 26.7
2019-Sep-15 13:45 016 4 gusting 6 26.1
2019-Sep-15 13:30 034 1 gusting 5 26.1
2019-Sep-15 13:15 030 2 gusting 5 25.6
2019-Sep-15 13:00 021 3 gusting 9 25.6
2019-Sep-15 12:45 012 5 gusting 7 25.6
2019-Sep-15 12:30 030 4 gusting 6 25.6
2019-Sep-15 12:15
2019-Sep-15 12:01
2019-Sep-15 11:47
2019-Sep-15 11:31
2019-Sep-15 11:17
2019-Sep-15 11:01
2019-Sep-15 10:46
2019-Sep-15 10:31
2019-Sep-15 10:15
2019-Sep-15 10:00
2019-Sep-15 09:45
2019-Sep-15 09:30
2019-Sep-15 09:15
2019-Sep-15 09:00
2019-Sep-15 08:45
2019-Sep-15 08:32
2019-Sep-15 08:16
2019-Sep-15 08:01
2019-Sep-15 07:46
2019-Sep-15 07:31
2019-Sep-15 07:16
2019-Sep-15 07:01
2019-Sep-15 06:46
2019-Sep-15 06:30
2019-Sep-15 06:15
2019-Sep-15 06:01
2019-Sep-15 05:45
2019-Sep-15 05:30
2019-Sep-15 05:15
2019-Sep-15 05:01 076 2 gusting 9 26.1
2019-Sep-15 04:47 084 1 gusting 5 26.7
2019-Sep-15 04:31 056 26.7
2019-Sep-15 04:16 127 26.7
2019-Sep-15 04:00 228 26.7
2019-Sep-15 03:46 075 26.7
2019-Sep-15 03:32 063 0 gusting 5 26.7
2019-Sep-15 03:17 297 1 gusting 6 27.2
2019-Sep-15 03:01 354 1 gusting 7 27.2
2019-Sep-15 02:47 107 1 gusting 6 27.2
2019-Sep-15 02:32 338 2 gusting 9 27.2
2019-Sep-15 02:15 146 1 gusting 10 27.2
2019-Sep-15 02:01 046 5 gusting 13 27.2
2019-Sep-15 01:46 331 2 gusting 9 27.2
2019-Sep-15 01:31 165 2 gusting 9 27.2
2019-Sep-15 01:17 027 3 gusting 7 27.2
2019-Sep-15 01:01 117 5 gusting 11 27.2
2019-Sep-15 00:46 099 2 gusting 8 27.2
2019-Sep-15 00:31 079 27.2
2019-Sep-15 00:15 094 0 gusting 8 27.2
2019-Sep-15 00:01 129 4 gusting 11 27.8
2019-Sep-14 23:45 019 5 gusting 10 28.3
2019-Sep-14 23:30 018 3 gusting 8 28.3
2019-Sep-14 23:15 359 3 gusting 11 28.3
2019-Sep-14 23:01 040 6 gusting 13 28.3
2019-Sep-14 22:46 034 3 gusting 8 28.3
2019-Sep-14 22:31 020 27.8
2019-Sep-14 22:15 347 27.8
2019-Sep-14 22:01 032 27.2
2019-Sep-14 21:45 076 27.8
2019-Sep-14 21:31 112 27.8
2019-Sep-14 21:16 133 27.8
2019-Sep-14 21:00 100 27.2
2019-Sep-14 20:45 032 27.2
2019-Sep-14 20:31 113 2 gusting 11 27.2
2019-Sep-14 20:15 101 9 gusting 15 28.9
2019-Sep-14 20:01 143 6 gusting 13 30.6
2019-Sep-14 19:46 129 6 gusting 13 30.6
2019-Sep-14 19:30 073 3 gusting 11 30.6
2019-Sep-14 19:15 059 1 gusting 10 30.0
2019-Sep-14 19:01 078 0 gusting 10 30.0
2019-Sep-14 18:45 331 0 gusting 7 29.4
2019-Sep-14 18:30 355 28.9
2019-Sep-14 18:16 174 4 gusting 11 28.3
2019-Sep-14 18:00 119 4 gusting 21 28.3
2019-Sep-14 17:45 046 1 gusting 14 31.1
2019-Sep-14 17:30 001 4 gusting 12 31.1
2019-Sep-14 17:15 043 3 gusting 14 30.6
2019-Sep-14 17:00 086 1 gusting 11 31.1
2019-Sep-14 16:45 352 31.1
2019-Sep-14 16:30 108 4 gusting 10 30.6
2019-Sep-14 16:15 086 1 gusting 11 30.6
2019-Sep-14 16:00 084 1 gusting 10 30.0
2019-Sep-14 15:46 129 0 gusting 13 30.0
2019-Sep-14 15:32 120 4 gusting 15 29.4
2019-Sep-14 15:16 070 2 gusting 10 29.4
2019-Sep-14 15:01 115 4 gusting 13 28.9
2019-Sep-14 14:46 113 4 gusting 13 28.9
2019-Sep-14 14:32 037 4 gusting 14 28.9
2019-Sep-14 14:16 082 2 gusting 11 28.9
2019-Sep-14 14:01 052 0 gusting 9 28.3
2019-Sep-14 13:45 343 3 gusting 10 27.8
2019-Sep-14 13:31 015 3 gusting 8 27.2
2019-Sep-14 13:16 098 6 gusting 13 27.2
2019-Sep-14 13:01 007 6 gusting 11 26.7
2019-Sep-14 12:46 007 7 gusting 13 26.1
2019-Sep-14 12:30 339 5 gusting 9 26.1
2019-Sep-14 12:15 030 3 gusting 11 26.1
2019-Sep-14 12:01 004 4 gusting 9 25.6
2019-Sep-14 11:45
2019-Sep-14 11:31
2019-Sep-14 11:15
2019-Sep-14 11:01
2019-Sep-14 10:45
2019-Sep-14 10:30
2019-Sep-14 10:15
2019-Sep-14 10:00
2019-Sep-14 09:47
2019-Sep-14 09:31
2019-Sep-14 09:16
2019-Sep-14 09:01
2019-Sep-14 08:45
2019-Sep-14 08:30
2019-Sep-14 08:16
2019-Sep-14 08:00
2019-Sep-14 07:45
2019-Sep-14 07:30
2019-Sep-14 07:15
2019-Sep-14 07:00
2019-Sep-14 06:45
2019-Sep-14 06:32
2019-Sep-14 06:16
2019-Sep-14 06:01
2019-Sep-14 05:46 033 4 gusting 8 26.1
2019-Sep-14 05:31 018 2 gusting 11 26.7
2019-Sep-14 05:15 032 4 gusting 10 26.7
2019-Sep-14 05:01 086 26.7
2019-Sep-14 04:46 098 0 gusting 6 26.7
2019-Sep-14 04:31 091 0 gusting 9 26.7
2019-Sep-14 04:15 039 1 gusting 9 26.7
2019-Sep-14 04:01 042 4 gusting 10 26.7
2019-Sep-14 03:45 058 4 gusting 12 26.7
2019-Sep-14 03:31 044 2 gusting 13 26.7
2019-Sep-14 03:16 061 6 gusting 12 27.2
2019-Sep-14 03:00 356 3 gusting 8 27.2
2019-Sep-14 02:45 023 2 gusting 9 27.2
2019-Sep-14 02:31 302 2 gusting 9 27.2
2019-Sep-14 02:16 015 2 gusting 9 27.2
2019-Sep-14 02:00 339 2 gusting 13 27.8
2019-Sep-14 01:45 099 3 gusting 15 27.8
2019-Sep-14 01:30 100 5 gusting 12 27.8
2019-Sep-14 01:15 072 4 gusting 16 27.8
2019-Sep-14 01:00 123 1 gusting 11 27.8
2019-Sep-14 00:45 039 4 gusting 14 27.8
2019-Sep-14 00:30 084 3 gusting 10 27.8
2019-Sep-14 00:15 098 2 gusting 15 28.3
2019-Sep-14 00:00 141 5 gusting 13 28.3
2019-Sep-13 23:45 045 4 gusting 13 28.3
2019-Sep-13 23:30 051 1 gusting 11 28.9
2019-Sep-13 23:15 096 28.9
2019-Sep-13 23:00 095 0 gusting 17 29.4
2019-Sep-13 22:45 065 4 gusting 13 30.0
2019-Sep-13 22:30 104 4 gusting 13 30.0
2019-Sep-13 22:15 078 7 gusting 13 30.0
2019-Sep-13 22:00 060 6 gusting 13 30.0
2019-Sep-13 21:45 107 4 gusting 17 30.6
2019-Sep-13 21:30 065 3 gusting 9 30.6
2019-Sep-13 21:15 341 1 gusting 10 30.6
2019-Sep-13 21:01 070 4 gusting 10 30.0
2019-Sep-13 20:45 112 5 gusting 12 30.0
2019-Sep-13 20:30 086 5 gusting 13 30.0
2019-Sep-13 20:15 061 1 gusting 12 30.0
2019-Sep-13 20:00 130 3 gusting 15 30.6